[[{"header":{"parameterUnit":"m.s-1","parameterCategory":1,"la1":30.2991,"la2":30.254,"lo1":-89.0895,"lo2":-89.0444,"dy":0.0017,"dx":0.0017,"nx":28,"ny":28,"refTime":"2025-08-22T03:00:00:Z","depth":0,"parameterNumber":2,"parameterNumberName":"U-component_of_WINDS"},"data":[0,0,0,0,0,0,0,0,0,0,0,0,0,0,0,0,0,0,0,0,0,0,0,0,0,0,0,0,0,0,0,0,0,0,0,0,0,0,0,0,0,0,0,0,0,0,0,0,0,0,0,0,0,0,0,0,0,0,-0.0386,-0.0386,0,-0.0346,-0.0346,-0.0345,-0.0327,-0.0327,-0.0327,-0.0327,-0.0285,-0.0283,-0.0282,0,0,0,0,0,0,0,0,0,0,0,0,0,-0.0445,-0.0444,-0.0386,-0.0386,-0.0385,-0.0346,-0.0346,-0.0345,-0.0327,-0.0327,-0.0327,-0.0327,-0.0285,-0.0284,-0.0282,0,0,0,0,0,0,0,0,0,0,0,0,0,-0.0413,-0.0443,-0.0386,-0.0372,-0.037,-0.0346,-0.0346,-0.0345,-0.0327,-0.0327,-0.0327,-0.0327,-0.0285,-0.0284,-0.0282,-0.027,0,0,-0.0277,-0.0276,0,0,0,0,0,0,0,0,-0.0415,-0.0411,-0.0374,-0.0373,-0.0371,-0.0342,-0.0351,-0.032,-0.0327,-0.0343,-0.0327,-0.0327,-0.0303,-0.03,-0.0293,-0.0268,-0.0266,-0.0276,-0.0275,-0.0275,-0.0274,0,0,0,0,0,0,0,-0.0417,-0.0413,-0.037,-0.0374,-0.0371,-0.0366,-0.0362,-0.0345,-0.0323,-0.0342,-0.034,-0.0336,-0.0302,-0.0294,-0.0291,-0.0265,-0.0277,-0.0275,-0.0274,-0.0273,-0.0227,-0.0227,0,0,0,0,0,0,-0.0422,-0.0415,-0.0372,-0.0369,-0.0394,-0.0365,-0.036,-0.0351,-0.0324,-0.0319,-0.0336,-0.0335,-0.0297,-0.0293,-0.029,-0.0273,-0.0275,-0.0273,-0.0272,-0.0227,-0.0227,-0.0227,0,0,0,0,0,0,-0.0424,-0.0419,-0.0373,-0.0392,-0.0385,-0.0364,-0.0354,-0.035,-0.0342,-0.0319,-0.0315,-0.0332,-0.0297,-0.0292,-0.0275,-0.0271,-0.0272,-0.0271,-0.0227,-0.0227,-0.0227,-0.0239,0,0,0,0,0,0,-0.0425,-0.0419,-0.0415,-0.0392,-0.0385,-0.036,-0.0354,-0.0349,-0.0339,-0.0338,-0.0314,-0.031,-0.0297,-0.0277,-0.0273,-0.0269,-0.0269,-0.0227,-0.0227,-0.0227,-0.0239,-0.0239,-0.024,0,0,0,0,0,-0.0428,-0.042,-0.0415,-0.041,-0.0379,-0.036,-0.0355,-0.0341,-0.0339,-0.0334,-0.0319,-0.0311,-0.0272,-0.0276,-0.0271,-0.0266,-0.0228,-0.0227,-0.0227,-0.0239,-0.0239,-0.024,0,0,0,0,0,0,-0.0443,-0.0417,-0.0411,-0.0396,-0.038,-0.0357,-0.035,-0.0342,-0.0326,-0.0325,-0.0307,-0.0302,-0.0286,-0.0274,-0.0278,-0.0252,-0.0249,-0.0248,-0.026,-0.026,-0.0261,-0.0264,-0.0268,0,0,0,0,0,-0.0445,-0.0432,-0.041,-0.0398,-0.0391,-0.0372,-0.0363,-0.0353,-0.0335,-0.0329,-0.0313,-0.0296,-0.0279,-0.0269,-0.0253,-0.0237,-0.0231,-0.0231,-0.0231,-0.0232,-0.0231,-0.022,-0.022,-0.0225,-0.0225,-0.0225,0,0,-0.0449,-0.0433,-0.0426,-0.0401,-0.0388,-0.0374,-0.0366,-0.0352,-0.0341,-0.0326,-0.0309,-0.0296,-0.0276,-0.0259,-0.025,-0.0248,-0.0228,-0.0231,-0.0232,-0.023,-0.022,-0.0219,-0.0219,-0.0225,-0.0225,-0.0225,0,0,-0.0448,-0.0435,-0.0424,-0.041,-0.039,-0.0377,-0.0375,-0.0352,-0.0343,-0.0325,-0.0313,-0.03,-0.0273,-0.0258,-0.0247,-0.024,-0.0231,-0.0235,-0.0237,-0.0227,-0.0226,-0.0226,-0.0222,-0.0221,-0.0234,-0.0234,-0.0234,0,-0.0455,-0.0434,-0.0419,-0.0405,-0.0394,-0.038,-0.0368,-0.0355,-0.0331,-0.0323,-0.0321,-0.0286,-0.0272,-0.025,-0.0248,-0.0241,-0.0236,-0.0238,-0.0228,-0.0227,-0.0226,-0.0223,-0.0221,-0.0235,-0.0234,-0.0234,-0.0234,0,-0.0443,-0.0429,-0.0422,-0.0399,-0.0387,-0.0374,-0.0356,-0.0346,-0.0336,-0.0323,-0.0304,-0.0286,-0.0266,-0.026,-0.0251,-0.0237,-0.0236,-0.0231,-0.0228,-0.0226,-0.0223,-0.0221,-0.0235,-0.0235,-0.0235,-0.0235,0,0,-0.0452,-0.042,-0.0417,-0.0406,-0.0382,-0.0371,-0.0356,-0.0337,-0.0328,-0.0311,-0.0298,-0.0275,-0.027,-0.0257,-0.0246,-0.0237,-0.0231,-0.0233,-0.0232,-0.0233,-0.0213,-0.0217,-0.0216,-0.0225,-0.0225,-0.0225,-0.0215,0,-0.0447,-0.0422,-0.0407,-0.0388,-0.0374,-0.0359,-0.0347,-0.033,-0.0317,-0.0303,-0.0288,-0.0272,-0.0267,-0.0259,-0.025,-0.0234,-0.0227,-0.0234,-0.0212,-0.0211,-0.0217,-0.0214,-0.0218,-0.021,-0.0213,-0.0213,-0.0213,0,-0.0439,-0.0423,-0.0402,-0.0378,-0.0372,-0.0361,-0.0341,-0.0328,-0.0308,-0.0299,-0.0285,-0.0273,-0.0257,-0.0255,-0.0231,-0.0236,-0.0226,-0.0217,-0.0216,-0.0213,-0.0212,-0.021,-0.0207,-0.0205,-0.0211,-0.0211,-0.0211,0,-0.0447,-0.0419,-0.0403,-0.0394,-0.0366,-0.0359,-0.0347,-0.0327,-0.0316,-0.0298,-0.029,-0.0271,-0.026,-0.0244,-0.0227,-0.0228,-0.0205,-0.0202,-0.0196,-0.0196,-0.0192,-0.0192,-0.0186,-0.0186,-0.0186,-0.0186,-0.0186,0,-0.0443,-0.0431,-0.0406,-0.0396,-0.0381,-0.0364,-0.0349,-0.0336,-0.0318,-0.0305,-0.0291,-0.0278,-0.0257,-0.0241,-0.0227,-0.0209,-0.0204,-0.0196,-0.0192,-0.0197,-0.0198,-0.019,-0.019,-0.0186,-0.0186,-0.0186,-0.0186,0,-0.0449,-0.0432,-0.0413,-0.0389,-0.0382,-0.0372,-0.035,-0.0339,-0.0326,-0.0308,-0.0303,-0.0281,-0.0262,-0.0243,-0.0217,-0.0208,-0.0189,-0.0185,-0.0196,-0.0194,-0.0189,-0.019,-0.0177,-0.0174,-0.0177,-0.0177,-0.0177,0,-0.0448,-0.0438,-0.0412,-0.0402,-0.039,-0.0375,-0.0363,-0.0345,-0.0333,-0.0309,-0.0301,-0.028,-0.0263,-0.0232,-0.0213,-0.0193,-0.0188,-0.0185,-0.0185,-0.0189,-0.0187,-0.0188,-0.0186,-0.0185,-0.0185,-0.0185,-0.0185,0,-0.0447,-0.0439,-0.0423,-0.0403,-0.039,-0.0373,-0.0357,-0.0349,-0.0327,-0.0315,-0.0295,-0.0281,-0.0255,-0.0234,-0.0211,-0.0198,-0.0188,-0.0186,-0.0183,-0.0187,-0.0194,-0.019,-0.0197,-0.0186,-0.0186,-0.0186,-0.0186,-0.0186,-0.0449,-0.0439,-0.0419,-0.0401,-0.0386,-0.0371,-0.0359,-0.0343,-0.0327,-0.0304,-0.0294,-0.0274,-0.0253,-0.0221,-0.0208,-0.0191,-0.0188,-0.0185,-0.0184,-0.0183,-0.0184,-0.0197,-0.0187,-0.0186,-0.0186,-0.0186,-0.0186,0,-0.0447,-0.0433,-0.0417,-0.0394,-0.0379,-0.0371,-0.0352,-0.034,-0.0322,-0.0304,-0.0287,-0.0264,-0.0243,-0.0223,-0.0201,-0.0191,-0.0186,-0.0186,-0.0186,-0.0183,-0.0188,-0.0192,-0.0191,-0.0191,-0.0191,-0.0191,-0.0191,-0.0191,-0.0444,-0.0427,-0.0416,-0.039,-0.0376,-0.0357,-0.0346,-0.0331,-0.0316,-0.0291,-0.0274,-0.0261,-0.0241,-0.0217,-0.0198,-0.0192,-0.0184,-0.0186,-0.0179,-0.0183,-0.0183,-0.0183,-0.0187,-0.0184,-0.0184,-0.0176,-0.0176,-0.0175]},{"header":{"parameterUnit":"m.s-1","parameterCategory":1,"la1":30.2991,"la2":30.254,"lo1":-89.0895,"lo2":-89.0444,"dy":0.0017,"dx":0.0017,"nx":28,"ny":28,"refTime":"2025-08-22T03:00:00:Z","depth":0,"parameterNumber":3,"parameterNumberName":"V-component_of_WINDS"},"data":[0,0,0,0,0,0,0,0,0,0,0,0,0,0,0,0,0,0,0,0,0,0,0,0,0,0,0,0,0,0,0,0,0,0,0,0,0,0,0,0,0,0,0,0,0,0,0,0,0,0,0,0,0,0,0,0,0,0,-0.8271,-0.827,0,-0.8217,-0.8217,-0.8216,-0.8218,-0.8219,-0.8219,-0.822,-0.816,-0.8158,-0.8155,0,0,0,0,0,0,0,0,0,0,0,0,0,-0.837,-0.8368,-0.8271,-0.827,-0.827,-0.8217,-0.8217,-0.8216,-0.8218,-0.8219,-0.822,-0.8221,-0.8161,-0.8158,-0.8155,0,0,0,0,0,0,0,0,0,0,0,0,0,-0.8322,-0.8367,-0.8271,-0.8265,-0.8263,-0.8218,-0.8217,-0.8216,-0.8218,-0.8219,-0.822,-0.8221,-0.8162,-0.8158,-0.8155,-0.811,0,0,-0.8144,-0.8143,0,0,0,0,0,0,0,0,-0.8325,-0.8319,-0.8266,-0.8265,-0.8264,-0.8226,-0.8229,-0.818,-0.8217,-0.8235,-0.822,-0.8222,-0.818,-0.8175,-0.8163,-0.8108,-0.8105,-0.8144,-0.8142,-0.814,-0.8139,0,0,0,0,0,0,0,-0.8328,-0.8321,-0.825,-0.8265,-0.8264,-0.8262,-0.8257,-0.822,-0.8202,-0.8233,-0.8233,-0.8227,-0.818,-0.8166,-0.8161,-0.8104,-0.8144,-0.8141,-0.8139,-0.8137,-0.8006,-0.8005,0,0,0,0,0,0,-0.8334,-0.8324,-0.8251,-0.8248,-0.8298,-0.826,-0.8253,-0.8237,-0.8202,-0.8198,-0.8226,-0.8228,-0.8171,-0.8165,-0.8159,-0.8103,-0.814,-0.8137,-0.8135,-0.8008,-0.8006,-0.8005,0,0,0,0,0,0,-0.8336,-0.8327,-0.8254,-0.8286,-0.8276,-0.8257,-0.8238,-0.8235,-0.8221,-0.8197,-0.8193,-0.8216,-0.8172,-0.8164,-0.8122,-0.8101,-0.8135,-0.8132,-0.8009,-0.8007,-0.8005,-0.7991,0,0,0,0,0,0,-0.8339,-0.8328,-0.8312,-0.8286,-0.8275,-0.8219,-0.8236,-0.8233,-0.8216,-0.8217,-0.8186,-0.8182,-0.8172,-0.8127,-0.8119,-0.8097,-0.813,-0.8011,-0.8009,-0.8006,-0.7993,-0.7989,-0.7985,0,0,0,0,0,-0.8342,-0.831,-0.8312,-0.8303,-0.8255,-0.8218,-0.8212,-0.8203,-0.8214,-0.8197,-0.8181,-0.8183,-0.8105,-0.8123,-0.8113,-0.809,-0.8013,-0.8009,-0.8006,-0.7995,-0.7989,-0.7985,0,0,0,0,0,0,-0.8334,-0.8306,-0.8308,-0.8267,-0.8245,-0.8219,-0.8197,-0.8197,-0.8171,-0.8172,-0.8161,-0.8154,-0.8111,-0.8097,-0.8117,-0.8044,-0.806,-0.8055,-0.8055,-0.8049,-0.8045,-0.8048,-0.8127,0,0,0,0,0,-0.8327,-0.8301,-0.8278,-0.8244,-0.8233,-0.8217,-0.82,-0.8195,-0.8171,-0.8162,-0.8143,-0.8118,-0.8088,-0.8068,-0.8039,-0.7992,-0.7983,-0.797,-0.7966,-0.7963,-0.7958,-0.7928,-0.7922,-0.7994,-0.7994,-0.7994,0,0,-0.8313,-0.8295,-0.8279,-0.8241,-0.8224,-0.8195,-0.8209,-0.8178,-0.8156,-0.8157,-0.8116,-0.8101,-0.8072,-0.8027,-0.8006,-0.8013,-0.7936,-0.7959,-0.7956,-0.7953,-0.7925,-0.7918,-0.7912,-0.7992,-0.7993,-0.7993,0,0,-0.8272,-0.8257,-0.8226,-0.8208,-0.8182,-0.8171,-0.8163,-0.8137,-0.8127,-0.8086,-0.8085,-0.8058,-0.8007,-0.7985,-0.7968,-0.7918,-0.7917,-0.7908,-0.7885,-0.7857,-0.7851,-0.7846,-0.7825,-0.7818,-0.7904,-0.7904,-0.7904,0,-0.8257,-0.8216,-0.8209,-0.8178,-0.816,-0.8161,-0.8127,-0.811,-0.8074,-0.8061,-0.8071,-0.8005,-0.7986,-0.7934,-0.7922,-0.7908,-0.7897,-0.7911,-0.7853,-0.7848,-0.7843,-0.7823,-0.7815,-0.7903,-0.7903,-0.7903,-0.7903,0,-0.8197,-0.8168,-0.8145,-0.8113,-0.8092,-0.806,-0.8046,-0.8026,-0.8023,-0.801,-0.7967,-0.7944,-0.791,-0.7897,-0.7893,-0.7844,-0.7849,-0.7856,-0.7872,-0.7835,-0.7816,-0.7808,-0.7901,-0.7902,-0.7902,-0.7902,0,0,-0.8149,-0.8112,-0.8104,-0.8088,-0.8059,-0.8035,-0.8001,-0.7969,-0.795,-0.7926,-0.7896,-0.7852,-0.7857,-0.7838,-0.7831,-0.7807,-0.7765,-0.7816,-0.7815,-0.7805,-0.7705,-0.7699,-0.769,-0.7765,-0.7764,-0.7762,-0.7707,0,-0.8103,-0.8046,-0.8038,-0.7986,-0.7957,-0.7957,-0.7928,-0.7905,-0.7892,-0.7864,-0.785,-0.7818,-0.7829,-0.7816,-0.7793,-0.7775,-0.7744,-0.7779,-0.7734,-0.7732,-0.7739,-0.7681,-0.7674,-0.7623,-0.77,-0.7698,-0.7698,0,-0.8042,-0.8016,-0.7962,-0.7935,-0.7922,-0.7896,-0.7864,-0.7839,-0.7812,-0.7804,-0.7781,-0.7777,-0.774,-0.7759,-0.7705,-0.7729,-0.771,-0.7699,-0.7696,-0.769,-0.7711,-0.767,-0.7606,-0.7598,-0.7686,-0.7687,-0.7688,0,-0.8009,-0.7961,-0.7922,-0.7908,-0.7876,-0.7857,-0.7842,-0.7817,-0.7797,-0.7769,-0.7755,-0.7723,-0.7704,-0.7677,-0.7664,-0.7679,-0.761,-0.7629,-0.76,-0.76,-0.7584,-0.7584,-0.7513,-0.7576,-0.7576,-0.7576,-0.7576,0,-0.7957,-0.7923,-0.7906,-0.7882,-0.7842,-0.7833,-0.7794,-0.778,-0.7757,-0.7728,-0.7726,-0.7698,-0.7683,-0.7652,-0.7641,-0.7596,-0.7588,-0.7579,-0.7576,-0.7578,-0.7579,-0.7563,-0.7566,-0.7574,-0.7574,-0.7575,-0.7575,0,-0.7913,-0.7901,-0.7857,-0.783,-0.7823,-0.7795,-0.777,-0.7745,-0.7733,-0.7695,-0.7686,-0.7665,-0.7629,-0.7613,-0.7568,-0.756,-0.7509,-0.751,-0.7518,-0.7516,-0.7488,-0.749,-0.7402,-0.7389,-0.7463,-0.7462,-0.7461,0,-0.788,-0.7853,-0.7824,-0.7805,-0.779,-0.7759,-0.7739,-0.7728,-0.7707,-0.7673,-0.7651,-0.7615,-0.7585,-0.7526,-0.7506,-0.747,-0.7469,-0.7441,-0.7463,-0.7465,-0.7465,-0.7466,-0.7461,-0.7436,-0.7435,-0.7434,-0.7434,0,-0.7821,-0.7816,-0.7788,-0.7757,-0.7733,-0.7707,-0.7683,-0.7667,-0.7652,-0.7627,-0.759,-0.7567,-0.7521,-0.7484,-0.7447,-0.7429,-0.7427,-0.7427,-0.7418,-0.7419,-0.7423,-0.7418,-0.7504,-0.7429,-0.7429,-0.743,-0.743,-0.743,-0.7779,-0.7755,-0.773,-0.7698,-0.7678,-0.7655,-0.7629,-0.7613,-0.7583,-0.7546,-0.7541,-0.75,-0.7472,-0.7423,-0.7403,-0.737,-0.7377,-0.7364,-0.7361,-0.7357,-0.7354,-0.7431,-0.7363,-0.7364,-0.7364,-0.7364,-0.7364,0,-0.7718,-0.7702,-0.7673,-0.7638,-0.7612,-0.7616,-0.7588,-0.7565,-0.753,-0.7505,-0.7475,-0.7431,-0.7395,-0.7372,-0.7334,-0.7312,-0.731,-0.7302,-0.7302,-0.7297,-0.7351,-0.7362,-0.7304,-0.7304,-0.7304,-0.7304,-0.7304,-0.7304,-0.7683,-0.7641,-0.7633,-0.7581,-0.7564,-0.7526,-0.7509,-0.7486,-0.7466,-0.7417,-0.7388,-0.7373,-0.7347,-0.7308,-0.7274,-0.7267,-0.7252,-0.7244,-0.7237,-0.7288,-0.7294,-0.73,-0.7309,-0.7241,-0.7241,-0.7185,-0.7185,-0.7185]}]]